Date,Time,Wetness (Wet Dry or Ice),Wind Speed (m/s),Temperature (C),Humidity (%),Pressure (mb),Radiation (W/m^2)
2024-03-15,05:00:00,DRY,2.40,13.57,17.3,775.00,0.0
2024-03-15,05:05:00,DRY,2.15,13.55,18.0,775.00,0.0
2024-03-15,05:10:00,DRY,1.70,13.33,19.0,775.00,0.0
2024-03-15,05:15:00,DRY,1.85,12.80,19.5,775.00,0.0
2024-03-15,05:20:00,DRY,2.33,13.00,17.7,775.00,0.0
2024-03-15,05:25:00,DRY,2.20,13.30,17.0,775.00,0.0
2024-03-15,05:30:00,DRY,2.10,13.53,16.3,775.00,0.0
2024-03-15,05:35:00,DRY,3.10,13.60,16.0,775.00,0.0
2024-03-15,05:40:00,DRY,2.97,13.80,16.3,775.00,0.0
2024-03-15,05:45:00,DRY,2.00,13.75,16.5,775.00,0.0
2024-03-15,05:50:00,DRY,2.33,13.57,17.0,775.00,0.0
2024-03-15,05:55:00,DRY,1.95,13.35,18.0,775.00,0.0
2024-03-15,06:00:00,DRY,1.77,13.37,18.0,775.00,0.0
2024-03-15,06:05:00,DRY,1.70,13.05,19.0,775.00,0.0
2024-03-15,06:10:00,DRY,1.80,12.93,19.0,775.00,0.0
2024-03-15,06:15:00,DRY,2.00,13.15,19.0,775.00,0.0
2024-03-15,06:20:00,DRY,1.93,13.33,19.3,775.00,0.0
2024-03-15,06:25:00,DRY,2.00,13.35,20.5,775.00,0.0
2024-03-15,06:30:00,DRY,1.87,13.20,21.0,775.00,0.0
2024-03-15,06:35:00,DRY,1.90,13.10,21.0,775.00,0.0
2024-03-15,06:40:00,DRY,2.07,13.00,21.0,775.00,0.0
2024-03-15,06:45:00,DRY,2.55,12.75,21.0,775.00,0.0
2024-03-15,06:50:00,DRY,2.50,12.50,22.0,775.00,0.0
2024-03-15,06:55:00,DRY,3.10,12.65,22.0,775.00,0.0
2024-03-15,07:00:00,DRY,2.77,12.97,21.0,775.00,0.0
2024-03-15,07:05:00,DRY,2.25,13.00,21.5,775.00,0.0
2024-03-15,07:10:00,DRY,3.00,13.17,21.0,775.00,0.0
2024-03-15,07:15:00,DRY,2.75,13.30,21.0,775.00,0.0
2024-03-15,07:20:00,DRY,2.83,13.27,21.0,775.00,0.0
2024-03-15,07:25:00,DRY,3.65,13.20,22.0,775.00,0.5
2024-03-15,07:30:00,DRY,3.73,13.20,21.7,775.00,3.7
2024-03-15,07:35:00,DRY,3.25,13.20,22.0,775.00,7.0
2024-03-15,07:40:00,DRY,3.13,13.27,21.7,775.33,10.0
2024-03-15,07:45:00,DRY,3.40,13.30,22.0,775.00,13.5
2024-03-15,07:50:00,DRY,3.47,13.20,22.0,776.00,16.3
2024-03-15,07:55:00,DRY,3.15,13.20,22.0,776.00,19.5
2024-03-15,08:00:00,DRY,3.13,13.13,22.0,776.00,22.0
2024-03-15,08:05:00,DRY,2.25,13.30,21.0,776.00,69.0
2024-03-15,08:10:00,DRY,2.87,13.40,21.0,776.00,181.3
2024-03-15,08:15:00,DRY,2.40,13.60,21.0,776.00,202.5
2024-03-15,08:20:00,DRY,3.03,13.67,21.0,776.00,223.7
2024-03-15,08:25:00,DRY,2.85,13.80,21.0,776.00,244.5
2024-03-15,08:30:00,DRY,2.13,13.83,20.7,776.00,265.3
2024-03-15,08:35:00,DRY,2.25,13.80,21.0,776.00,287.0
2024-03-15,08:40:00,DRY,2.03,13.80,21.3,776.00,308.3
2024-03-15,08:45:00,DRY,2.15,13.85,21.0,776.00,329.0
2024-03-15,08:50:00,DRY,2.30,13.97,21.3,776.00,350.7
2024-03-15,08:55:00,DRY,1.60,13.75,21.5,776.00,372.0
2024-03-15,09:00:00,DRY,2.57,13.50,21.0,776.00,393.3
2024-03-15,09:05:00,DRY,1.55,13.60,20.0,776.00,414.5
2024-03-15,09:10:00,DRY,3.13,13.57,19.0,776.00,437.3
2024-03-15,09:15:00,DRY,1.95,13.50,18.0,776.00,458.0
2024-03-15,09:20:00,DRY,2.30,13.53,17.7,776.00,478.3
2024-03-15,09:25:00,DRY,1.60,13.75,18.5,776.00,498.0
2024-03-15,09:30:00,DRY,2.00,13.83,17.3,776.00,519.0
2024-03-15,09:35:00,DRY,2.15,13.95,16.5,776.00,538.0
2024-03-15,09:40:00,DRY,2.57,14.00,16.3,776.00,558.7
2024-03-15,09:45:00,DRY,1.85,14.05,17.0,776.00,578.0
2024-03-15,09:50:00,DRY,1.87,14.23,17.3,776.00,597.0
2024-03-15,09:55:00,DRY,1.60,14.35,17.0,776.00,615.0
2024-03-15,10:00:00,DRY,2.03,14.63,16.7,776.00,632.3
2024-03-15,10:05:00,DRY,2.00,14.60,17.0,776.00,649.5
2024-03-15,10:10:00,DRY,2.17,14.50,16.7,776.00,667.0
2024-03-15,10:15:00,DRY,2.20,14.55,17.0,776.00,684.5
2024-03-15,10:20:00,DRY,2.27,14.67,15.7,776.00,700.7
2024-03-15,10:25:00,DRY,2.35,14.50,16.0,776.00,718.0
2024-03-15,10:30:00,DRY,1.83,14.57,15.7,776.00,734.7
2024-03-15,10:35:00,DRY,3.10,14.60,16.0,776.00,751.0
2024-03-15,10:40:00,DRY,2.30,14.67,15.7,776.00,765.7
2024-03-15,10:45:00,DRY,2.15,14.70,16.0,777.00,780.0
2024-03-15,10:50:00,DRY,3.30,14.73,16.7,776.00,793.7
2024-03-15,10:55:00,DRY,3.10,14.60,17.0,776.50,798.0
2024-03-15,11:00:00,DRY,3.33,14.80,16.3,776.33,798.0
2024-03-15,11:05:00,DRY,1.95,14.95,16.5,777.00,798.0
2024-03-15,11:10:00,DRY,2.23,15.00,16.0,777.00,798.0
2024-03-15,11:15:00,DRY,1.70,15.05,16.0,777.00,798.0
2024-03-15,11:20:00,DRY,2.40,15.07,16.0,776.67,798.0
2024-03-15,11:25:00,DRY,2.55,15.05,17.0,776.00,798.0
2024-03-15,11:30:00,DRY,2.43,15.33,16.7,776.67,798.0
2024-03-15,11:35:00,DRY,1.30,15.60,17.0,777.00,798.0
2024-03-15,11:40:00,DRY,1.70,15.57,17.0,776.33,798.0
2024-03-15,11:45:00,DRY,2.40,15.70,18.0,776.00,798.0
2024-03-15,11:50:00,DRY,2.63,15.60,17.7,776.00,798.0
2024-03-15,11:55:00,DRY,2.05,15.45,18.0,776.50,798.0
2024-03-15,12:00:00,DRY,1.97,16.20,18.0,776.00,798.0
2024-03-15,12:05:00,DRY,2.65,15.95,18.5,776.00,798.0
2024-03-15,12:10:00,DRY,1.97,15.90,18.0,776.00,798.0
2024-03-15,12:15:00,DRY,1.95,15.95,19.0,776.00,798.0
2024-03-15,12:20:00,DRY,1.27,15.80,18.7,776.00,798.0
2024-03-15,12:25:00,DRY,3.50,15.95,20.5,776.00,798.0
2024-03-15,12:30:00,DRY,3.30,16.30,20.0,776.00,798.0
2024-03-15,12:35:00,DRY,1.95,15.90,20.5,776.00,798.0
2024-03-15,12:40:00,DRY,1.90,16.03,20.0,776.00,798.0
2024-03-15,12:45:00,DRY,1.40,15.50,20.5,776.00,798.0
2024-03-15,12:50:00,DRY,2.57,16.13,21.3,776.00,798.0
2024-03-15,12:55:00,DRY,2.90,16.30,22.5,776.00,798.0
2024-03-15,13:00:00,DRY,2.20,16.23,22.7,776.00,798.0
2024-03-15,13:05:00,DRY,1.60,16.10,22.0,776.00,798.0
2024-03-15,13:10:00,DRY,4.07,16.27,23.7,776.00,798.0
2024-03-15,13:15:00,DRY,2.55,16.20,24.0,776.00,798.0
2024-03-15,13:20:00,DRY,2.50,16.20,23.7,776.00,798.0
2024-03-15,13:25:00,DRY,1.35,16.30,24.0,776.00,798.0
2024-03-15,13:30:00,DRY,2.50,15.80,23.0,776.00,798.0
2024-03-15,13:35:00,DRY,4.00,15.70,25.0,776.00,798.0
2024-03-15,13:40:00,DRY,1.63,15.87,24.0,776.00,798.0
2024-03-15,13:45:00,DRY,3.80,16.20,25.5,776.00,798.0
2024-03-15,13:50:00,DRY,2.90,15.67,25.0,776.00,798.0
2024-03-15,13:55:00,DRY,2.65,15.65,24.5,776.00,798.0
2024-03-15,14:00:00,DRY,1.90,16.07,24.0,776.00,798.0
2024-03-15,14:05:00,DRY,3.70,15.85,24.0,776.00,798.0
2024-03-15,14:10:00,DRY,3.17,15.77,25.0,776.00,798.0
2024-03-15,14:15:00,DRY,3.45,15.85,24.5,776.00,798.0
2024-03-15,14:20:00,DRY,1.63,16.20,24.3,776.00,798.0
2024-03-15,14:25:00,DRY,3.70,16.00,23.0,776.00,798.0
2024-03-15,14:30:00,DRY,1.13,15.90,24.0,775.33,798.0
2024-03-15,14:35:00,DRY,2.55,16.20,23.5,775.50,798.0
2024-03-15,14:40:00,DRY,1.90,16.03,24.7,775.33,798.0
2024-03-15,14:45:00,DRY,1.80,16.10,24.0,775.00,798.0
2024-03-15,14:50:00,DRY,1.20,16.40,21.3,775.00,798.0
2024-03-15,14:55:00,DRY,3.95,16.40,22.0,775.00,798.0
2024-03-15,15:00:00,DRY,3.70,16.00,22.3,775.00,798.0
2024-03-15,15:05:00,DRY,2.95,16.10,23.0,775.00,798.0
2024-03-15,15:10:00,DRY,3.53,15.70,22.0,775.00,798.0
2024-03-15,15:15:00,DRY,2.90,15.40,23.0,775.00,798.0
2024-03-15,15:20:00,DRY,2.87,15.60,23.0,775.00,798.0
2024-03-15,15:25:00,DRY,3.45,15.65,22.5,775.00,798.0
2024-03-15,15:30:00,DRY,1.97,15.60,24.0,775.00,798.0
2024-03-15,15:35:00,DRY,1.90,15.35,24.5,775.00,798.0
2024-03-15,15:40:00,DRY,2.00,15.37,24.0,775.00,797.7
2024-03-15,15:45:00,DRY,1.20,15.70,22.0,775.00,786.0
2024-03-15,15:50:00,DRY,1.90,16.07,22.0,775.00,770.3
2024-03-15,15:55:00,DRY,5.40,15.75,22.0,775.00,758.5
2024-03-15,16:00:00,DRY,4.10,15.47,22.3,775.00,743.3
2024-03-15,16:05:00,DRY,2.10,15.00,22.5,775.00,726.5
2024-03-15,16:10:00,DRY,1.00,16.07,23.7,775.00,708.3
2024-03-15,16:15:00,DRY,3.50,16.40,22.5,775.00,689.5
2024-03-15,16:20:00,DRY,2.33,15.73,22.7,775.00,672.7
2024-03-15,16:25:00,DRY,2.15,15.35,22.5,775.00,655.0
2024-03-15,16:30:00,DRY,2.70,15.10,24.3,775.00,637.3
2024-03-15,16:35:00,DRY,1.40,15.10,24.0,775.00,620.0
2024-03-15,16:40:00,DRY,3.80,14.97,25.3,775.00,602.0
2024-03-15,16:45:00,DRY,2.90,14.50,26.0,775.00,583.5
2024-03-15,16:50:00,DRY,1.80,14.83,24.0,775.00,563.7
2024-03-15,16:55:00,DRY,2.00,14.45,22.5,775.00,544.5
2024-03-15,17:00:00,DRY,4.43,14.43,22.3,775.00,526.0
2024-03-15,17:05:00,DRY,3.55,14.20,22.0,775.00,506.5
2024-03-15,17:10:00,DRY,3.33,14.00,22.0,775.00,486.3
2024-03-15,17:15:00,DRY,1.80,14.20,21.0,775.00,466.0
2024-03-15,17:20:00,DRY,4.40,14.27,21.3,775.00,445.3
2024-03-15,17:25:00,DRY,1.60,14.20,23.5,775.00,421.0
2024-03-15,17:30:00,DRY,2.70,14.47,22.3,775.00,397.0
2024-03-15,17:35:00,DRY,2.50,14.45,23.0,775.00,374.5
2024-03-15,17:40:00,DRY,2.83,14.60,22.0,775.00,352.3
2024-03-15,17:45:00,DRY,2.05,14.30,22.0,775.00,328.5
2024-03-15,17:50:00,DRY,3.70,13.90,22.3,775.00,310.0
2024-03-15,17:55:00,DRY,3.30,13.65,22.0,775.00,290.0
2024-03-15,18:00:00,DRY,2.00,13.60,22.3,775.00,269.3
2024-03-15,18:05:00,DRY,2.65,13.75,22.5,775.00,247.5
2024-03-15,18:10:00,DRY,2.97,13.57,22.7,775.00,225.7
2024-03-15,18:15:00,DRY,2.95,13.50,22.5,775.00,205.5
2024-03-15,18:20:00,DRY,2.10,13.40,22.7,775.00,184.3
2024-03-15,18:25:00,DRY,3.30,13.40,22.5,775.00,164.5
2024-03-15,18:30:00,DRY,3.30,13.27,22.7,775.00,143.3
2024-03-15,18:35:00,DRY,3.50,13.10,23.0,775.00,118.0
2024-03-15,18:40:00,DRY,2.83,13.03,22.7,775.00,33.7
2024-03-15,18:45:00,DRY,3.25,13.00,23.0,775.00,20.5
2024-03-15,18:50:00,DRY,4.17,12.97,22.0,775.00,18.0
2024-03-15,18:55:00,DRY,3.25,12.90,22.0,775.00,15.0
2024-03-15,19:00:00,DRY,2.80,12.90,21.7,775.00,12.7
2024-03-15,19:05:00,DRY,4.60,12.85,22.0,775.00,9.0
2024-03-15,19:10:00,DRY,3.77,12.77,22.0,775.00,4.3
2024-03-15,19:15:00,DRY,2.80,12.70,21.5,775.00,1.5
2024-03-15,19:20:00,DRY,4.27,12.77,20.0,775.00,0.0
2024-03-15,19:25:00,DRY,2.80,12.75,20.0,775.00,0.0
2024-03-15,19:30:00,DRY,4.17,12.70,20.0,775.00,0.0
2024-03-15,19:35:00,DRY,1.90,12.60,20.0,775.00,0.0
2024-03-15,19:40:00,DRY,4.35,12.60,20.0,775.00,0.0
2024-03-15,19:45:00,DRY,3.40,12.40,20.5,775.00,0.0
2024-03-15,19:50:00,DRY,2.23,12.37,20.3,775.00,0.0
2024-03-15,19:55:00,DRY,2.30,12.10,21.0,775.00,0.0
2024-03-15,20:00:00,DRY,2.00,12.20,20.3,775.00,0.0
2024-03-15,20:05:00,DRY,1.70,12.20,20.5,775.00,0.0
2024-03-15,20:10:00,DRY,0.90,12.00,20.7,775.67,0.0
2024-03-15,20:15:00,DRY,1.70,11.90,21.0,775.50,0.0
2024-03-15,20:20:00,DRY,3.33,12.07,20.7,775.00,0.0
2024-03-15,20:25:00,DRY,2.35,12.30,20.5,775.00,0.0
2024-03-15,20:30:00,DRY,2.40,12.40,20.0,775.67,0.0
2024-03-15,20:35:00,DRY,3.05,12.45,20.0,775.00,0.0
2024-03-15,20:40:00,DRY,2.33,12.40,20.0,775.00,0.0
2024-03-15,20:45:00,DRY,1.20,12.35,20.0,775.00,0.0
2024-03-15,20:50:00,DRY,1.40,12.17,20.3,775.00,0.0
2024-03-15,20:55:00,DRY,2.20,12.20,20.0,775.50,0.0
2024-03-15,21:00:00,DRY,2.17,12.13,20.0,775.67,0.0
2024-03-15,21:05:00,DRY,3.70,12.10,20.0,776.00,0.0
2024-03-15,21:10:00,DRY,2.97,12.17,20.0,776.00,0.0
2024-03-15,21:15:00,DRY,4.45,12.10,20.0,776.00,0.0
2024-03-15,21:20:00,DRY,5.00,12.20,19.3,776.00,0.0
2024-03-15,21:25:00,DRY,2.75,12.20,18.5,776.00,0.0
2024-03-15,21:30:00,DRY,3.13,12.10,17.3,776.00,0.0
2024-03-15,21:35:00,DRY,2.40,12.20,17.0,776.00,0.0
2024-03-15,21:40:00,DRY,3.90,12.20,17.0,776.00,0.0
2024-03-15,21:45:00,DRY,1.40,12.15,16.5,776.00,0.0
2024-03-15,21:50:00,DRY,2.00,12.10,16.0,776.00,0.0
2024-03-15,21:55:00,DRY,2.15,12.00,16.5,776.00,0.0
2024-03-15,22:00:00,DRY,3.10,12.03,15.7,775.67,0.0
2024-03-15,22:05:00,DRY,1.90,12.00,16.0,776.00,0.0
2024-03-15,22:10:00,DRY,3.00,11.97,16.0,775.67,0.0
2024-03-15,22:15:00,DRY,3.70,11.95,15.5,776.00,0.0
2024-03-15,22:20:00,DRY,3.97,12.00,15.0,775.67,0.0
2024-03-15,22:25:00,DRY,5.25,11.95,15.5,775.50,0.0
2024-03-15,22:30:00,DRY,3.50,11.95,16.0,775.00,0.0
2024-03-15,22:35:00,DRY,3.30,11.90,16.0,776.00,0.0
2024-03-15,22:40:00,DRY,2.73,11.83,16.0,775.67,0.0
2024-03-15,22:45:00,DRY,2.90,11.80,16.5,775.00,0.0
2024-03-15,22:50:00,DRY,3.67,12.00,16.3,775.00,0.0
2024-03-15,22:55:00,DRY,2.65,12.00,16.0,775.50,0.0
2024-03-15,23:00:00,DRY,2.73,11.90,16.0,775.33,0.0
2024-03-15,23:05:00,DRY,3.30,12.00,16.0,775.50,0.0
2024-03-15,23:10:00,DRY,2.20,12.07,16.0,775.67,0.0
2024-03-15,23:15:00,DRY,1.40,12.00,15.0,776.00,0.0
2024-03-15,23:20:00,DRY,5.00,12.00,15.0,776.00,0.0
2024-03-15,23:25:00,DRY,4.70,12.00,14.0,775.50,0.0
2024-03-15,23:30:00,DRY,1.15,12.00,14.0,775.00,0.0
2024-03-15,23:35:00,DRY,2.50,12.00,13.0,775.00,0.0
2024-03-15,23:40:00,DRY,2.43,12.03,12.7,775.33,0.0
2024-03-15,23:45:00,DRY,1.85,12.00,12.0,775.00,0.0
2024-03-15,23:50:00,DRY,3.63,12.00,12.0,775.33,0.0
2024-03-15,23:55:00,DRY,4.65,12.00,12.0,775.00,0.0
2024-03-16,00:00:00,DRY,3.97,12.03,12.7,775.00,0.0
2024-03-16,00:05:00,DRY,3.55,12.05,13.0,775.00,0.0
2024-03-16,00:10:00,DRY,4.33,12.07,13.7,775.00,0.0
2024-03-16,00:15:00,DRY,5.00,12.10,14.5,775.00,0.0
2024-03-16,00:20:00,DRY,5.10,12.10,15.0,775.00,0.0
2024-03-16,00:25:00,DRY,5.85,12.10,15.0,775.00,0.0
2024-03-16,00:30:00,DRY,4.10,12.10,15.3,775.00,0.0
2024-03-16,00:35:00,DRY,2.60,12.10,16.5,775.00,0.0
2024-03-16,00:40:00,DRY,3.53,12.23,17.0,775.00,0.0
2024-03-16,00:45:00,DRY,3.30,12.20,16.5,775.00,0.0
2024-03-16,00:50:00,DRY,3.20,12.20,17.3,775.00,0.0
2024-03-16,00:55:00,DRY,7.75,12.20,17.0,775.00,0.0
2024-03-16,01:00:00,DRY,5.40,12.17,17.0,775.00,0.0
2024-03-16,01:05:00,DRY,6.20,12.15,17.0,775.00,0.0
2024-03-16,01:10:00,DRY,5.73,12.10,17.0,775.00,0.0
2024-03-16,01:15:00,DRY,6.50,12.20,17.5,775.00,0.0
2024-03-16,01:20:00,DRY,8.50,12.20,18.0,775.00,0.0
2024-03-16,01:25:00,DRY,10.05,12.20,18.0,775.00,0.0
2024-03-16,01:30:00,DRY,7.70,12.23,18.0,774.00,0.0
2024-03-16,01:35:00,DRY,6.90,12.25,17.5,774.50,0.0
2024-03-16,01:40:00,DRY,6.53,12.20,17.7,774.00,0.0
2024-03-16,01:45:00,DRY,9.90,12.30,17.5,774.00,0.0
2024-03-16,01:50:00,DRY,5.70,12.40,18.0,774.33,0.0
2024-03-16,01:55:00,DRY,7.35,12.40,17.5,774.00,0.0
2024-03-16,02:00:00,DRY,9.03,12.40,17.3,774.00,0.0
2024-03-16,02:05:00,DRY,7.00,12.40,17.0,774.00,0.0
2024-03-16,02:10:00,DRY,5.47,12.43,15.3,774.00,0.0
2024-03-16,02:15:00,DRY,8.75,12.40,16.5,774.00,0.0
2024-03-16,02:20:00,DRY,5.70,12.40,15.3,774.00,0.0
2024-03-16,02:25:00,DRY,8.30,12.35,15.0,774.00,0.0
2024-03-16,02:30:00,DRY,6.90,12.30,14.0,774.00,0.0
2024-03-16,02:35:00,DRY,8.20,12.30,14.5,774.00,0.0
2024-03-16,02:40:00,DRY,7.30,12.23,14.7,774.00,0.0
2024-03-16,02:45:00,DRY,5.15,12.30,14.5,774.00,0.0
2024-03-16,02:50:00,DRY,5.30,12.20,14.7,774.00,0.0
2024-03-16,02:55:00,DRY,9.50,12.30,14.0,774.00,0.0
2024-03-16,03:00:00,DRY,6.37,12.20,14.7,774.00,0.0
2024-03-16,03:05:00,DRY,4.95,12.10,15.0,774.00,0.0
2024-03-16,03:10:00,DRY,6.23,12.07,15.3,774.00,0.0
2024-03-16,03:15:00,DRY,6.55,12.00,15.5,773.50,0.0
2024-03-16,03:20:00,DRY,7.40,12.03,15.3,773.67,0.0
2024-03-16,03:25:00,DRY,5.35,12.10,15.0,774.00,0.0
2024-03-16,03:30:00,DRY,6.00,12.07,15.3,773.67,0.0
2024-03-16,03:35:00,DRY,4.75,12.00,16.0,774.00,0.0
2024-03-16,03:40:00,DRY,7.20,11.90,16.0,774.00,0.0
2024-03-16,03:45:00,DRY,7.90,11.95,15.0,773.00,0.0
2024-03-16,03:50:00,DRY,8.30,12.03,14.7,773.00,0.0
2024-03-16,03:55:00,DRY,6.25,12.15,14.0,773.00,0.0
2024-03-16,04:00:00,DRY,6.20,12.10,14.3,773.00,0.0
2024-03-16,04:05:00,DRY,6.20,12.00,15.0,773.00,0.0
2024-03-16,04:10:00,DRY,8.93,12.10,14.7,773.00,0.0
2024-03-16,04:15:00,DRY,6.35,12.05,15.0,773.00,0.0
2024-03-16,04:20:00,DRY,5.87,12.00,15.0,773.00,0.0
2024-03-16,04:25:00,DRY,9.15,12.00,14.5,773.00,0.0
2024-03-16,04:30:00,DRY,7.90,11.97,15.0,773.00,0.0
2024-03-16,04:35:00,DRY,6.30,11.95,15.0,773.00,0.0
2024-03-16,04:40:00,DRY,7.70,11.93,14.3,773.00,0.0
2024-03-16,04:45:00,DRY,9.35,11.95,14.5,773.00,0.0
2024-03-16,04:50:00,DRY,6.20,12.00,14.0,773.00,0.0
2024-03-16,04:55:00,DRY,4.95,11.90,13.5,773.00,0.0
2024-03-16,05:00:00,DRY,7.37,11.90,13.0,773.00,0.0
2024-03-16,05:05:00,DRY,7.70,12.00,12.0,773.00,0.0
2024-03-16,05:10:00,DRY,10.50,11.93,12.0,773.00,0.0
2024-03-16,05:15:00,DRY,6.60,11.90,12.0,773.00,0.0
2024-03-16,05:20:00,DRY,7.47,11.97,12.0,773.00,0.0
2024-03-16,05:25:00,DRY,8.35,11.95,12.0,773.00,0.0
2024-03-16,05:30:00,DRY,8.27,11.93,12.0,773.00,0.0
2024-03-16,05:35:00,DRY,7.55,11.90,13.0,773.00,0.0
2024-03-16,05:40:00,DRY,8.10,11.83,13.0,773.00,0.0
2024-03-16,05:45:00,DRY,7.90,11.85,13.0,773.00,0.0
2024-03-16,05:50:00,DRY,7.30,11.77,12.3,773.00,0.0
2024-03-16,05:55:00,DRY,7.70,11.85,12.5,773.00,0.0
2024-03-16,06:00:00,DRY,9.67,12.17,12.0,773.00,0.0
2024-03-16,06:05:00,DRY,9.40,12.10,12.0,773.00,0.0
2024-03-16,06:10:00,DRY,7.87,12.13,12.0,773.00,0.0
2024-03-16,06:15:00,DRY,7.20,12.15,12.0,773.00,0.0
2024-03-16,06:20:00,DRY,8.30,11.97,12.7,773.00,0.0
2024-03-16,06:25:00,DRY,11.65,11.90,13.0,773.00,0.0
2024-03-16,06:30:00,DRY,10.07,11.93,13.0,773.33,0.0
2024-03-16,06:35:00,DRY,10.50,11.70,13.5,773.00,0.0
2024-03-16,06:40:00,DRY,9.67,11.77,14.0,773.00,0.0
2024-03-16,06:45:00,DRY,9.60,11.85,14.0,773.50,0.0
2024-03-16,06:50:00,DRY,9.57,11.77,14.0,773.00,0.0
2024-03-16,06:55:00,DRY,16.00,12.05,15.0,773.00,0.0
2024-03-16,07:00:00,DRY,11.67,12.20,14.3,773.33,0.0
2024-03-16,07:05:00,DRY,11.40,12.20,13.0,773.00,0.0
2024-03-16,07:10:00,DRY,10.43,12.20,12.3,773.67,0.0
2024-03-16,07:15:00,DRY,9.80,12.05,12.0,774.00,0.0
2024-03-16,07:20:00,DRY,8.70,12.03,10.3,774.00,0.3
2024-03-16,07:25:00,DRY,10.50,11.90,11.0,773.50,3.0
2024-03-16,07:30:00,DRY,8.37,12.00,10.0,773.33,6.3
2024-03-16,07:35:00,DRY,8.75,12.00,12.5,774.00,9.5
2024-03-16,07:40:00,DRY,8.63,11.93,14.0,774.00,12.7
2024-03-16,07:45:00,DRY,8.05,11.90,13.5,774.00,15.5
2024-03-16,07:50:00,DRY,6.90,11.90,13.7,774.00,19.0
2024-03-16,07:55:00,DRY,6.90,12.00,12.5,774.00,21.5
2024-03-16,08:00:00,DRY,8.87,12.13,12.7,774.00,24.3
2024-03-16,08:05:00,DRY,7.30,12.10,14.0,774.00,27.5
2024-03-16,08:10:00,DRY,7.23,12.07,14.3,774.00,174.0
2024-03-16,08:15:00,DRY,7.10,12.15,16.0,774.00,215.0
2024-03-16,08:20:00,DRY,7.03,12.20,16.3,774.00,236.7
2024-03-16,08:25:00,DRY,10.95,12.30,16.5,774.00,259.5
2024-03-16,08:30:00,DRY,6.77,12.27,17.0,774.00,280.7
2024-03-16,08:35:00,DRY,8.55,12.30,16.5,774.00,302.0
2024-03-16,08:40:00,DRY,10.40,12.33,16.7,774.00,324.7
2024-03-16,08:45:00,DRY,7.95,12.50,17.0,774.00,345.0
2024-03-16,08:50:00,DRY,5.80,12.47,17.0,774.00,367.7
2024-03-16,08:55:00,DRY,5.75,12.45,17.0,774.00,389.0
2024-03-16,09:00:00,DRY,10.70,12.47,17.0,774.00,411.7
2024-03-16,09:05:00,DRY,7.10,12.45,17.0,774.00,433.0
2024-03-16,09:10:00,DRY,6.40,12.63,17.0,774.33,453.7
2024-03-16,09:15:00,DRY,7.85,12.65,17.5,774.50,473.0
2024-03-16,09:20:00,DRY,6.70,12.63,17.3,774.33,494.7
2024-03-16,09:25:00,DRY,9.80,12.70,17.5,774.50,515.5
2024-03-16,09:30:00,DRY,8.27,12.73,18.0,774.67,534.7
2024-03-16,09:35:00,DRY,5.30,12.65,18.5,774.50,555.0
2024-03-16,09:40:00,DRY,6.57,12.73,19.0,774.67,574.3
2024-03-16,09:45:00,DRY,5.30,12.75,19.0,774.50,593.5
2024-03-16,09:50:00,DRY,7.97,12.90,19.0,774.67,612.7
2024-03-16,09:55:00,DRY,10.30,12.95,19.0,775.00,630.0
2024-03-16,10:00:00,DRY,7.23,12.83,19.7,774.67,650.0
2024-03-16,10:05:00,DRY,6.85,12.90,19.0,774.50,666.5
2024-03-16,10:10:00,DRY,6.20,12.90,20.0,774.67,685.3
2024-03-16,10:15:00,DRY,6.30,12.95,20.0,775.00,701.0
2024-03-16,10:20:00,DRY,7.00,12.83,20.7,774.67,717.0
2024-03-16,10:25:00,DRY,9.00,12.95,21.0,774.50,733.5
2024-03-16,10:30:00,DRY,8.17,13.00,21.7,774.67,750.0
2024-03-16,10:35:00,DRY,6.45,12.95,21.5,775.00,764.5
2024-03-16,10:40:00,DRY,7.93,12.97,21.7,774.67,778.3
2024-03-16,10:45:00,DRY,7.85,13.10,21.5,774.50,793.0
2024-03-16,10:50:00,DRY,7.57,13.13,22.0,775.00,798.0
2024-03-16,10:55:00,DRY,6.00,13.20,21.5,774.50,798.0
2024-03-16,11:00:00,DRY,6.03,13.23,22.0,775.00,798.0
2024-03-16,11:05:00,DRY,6.00,13.20,22.5,774.50,798.0
2024-03-16,11:10:00,DRY,6.23,13.20,23.0,774.67,798.0
2024-03-16,11:15:00,DRY,5.30,13.30,23.0,775.00,798.0
2024-03-16,11:20:00,DRY,4.67,13.33,23.0,775.00,798.0
2024-03-16,11:25:00,DRY,1.85,13.55,23.5,775.00,798.0
2024-03-16,11:30:00,DRY,4.43,13.47,24.0,775.00,798.0
2024-03-16,11:35:00,DRY,6.00,13.40,24.0,775.00,798.0
2024-03-16,11:40:00,DRY,3.37,13.43,24.7,775.00,798.0
2024-03-16,11:45:00,DRY,4.20,13.55,25.0,775.00,798.0
2024-03-16,11:50:00,DRY,3.93,13.77,24.7,775.00,798.0
2024-03-16,11:55:00,DRY,3.95,13.75,25.0,775.00,798.0
2024-03-16,12:00:00,DRY,3.13,13.67,27.0,775.00,798.0
2024-03-16,12:05:00,DRY,4.15,13.70,26.0,775.00,798.0
2024-03-16,12:10:00,DRY,4.07,13.77,27.0,774.67,798.0
2024-03-16,12:15:00,DRY,4.60,13.70,27.0,775.00,798.0
2024-03-16,12:20:00,DRY,4.00,13.73,28.0,775.00,798.0
2024-03-16,12:25:00,DRY,3.65,13.60,30.0,774.50,798.0
2024-03-16,12:30:00,DRY,2.20,13.63,31.7,775.00,798.0
2024-03-16,12:35:00,DRY,2.00,13.50,31.0,775.00,798.0
2024-03-16,12:40:00,DRY,3.37,13.60,33.3,775.00,798.0
2024-03-16,12:45:00,DRY,4.00,13.40,31.5,775.00,798.0
2024-03-16,12:50:00,DRY,3.20,13.10,38.3,775.00,798.0
2024-03-16,12:55:00,DRY,3.45,13.15,38.0,774.50,798.0
2024-03-16,13:00:00,DRY,3.23,13.23,35.0,774.33,798.0
2024-03-16,13:05:00,DRY,2.95,13.10,34.5,774.50,798.0
2024-03-16,13:10:00,DRY,3.67,13.20,37.7,774.67,798.0
2024-03-16,13:15:00,DRY,4.10,13.10,39.0,774.00,798.0
2024-03-16,13:20:00,DRY,4.37,13.17,36.7,774.00,798.0
2024-03-16,13:25:00,DRY,4.45,13.00,37.5,774.00,798.0
2024-03-16,13:30:00,DRY,3.40,13.05,36.0,774.50,798.0
2024-03-16,13:35:00,DRY,2.00,13.40,35.0,774.00,798.0
2024-03-16,13:40:00,DRY,3.70,13.10,36.7,774.00,798.0
2024-03-16,13:45:00,DRY,8.45,13.15,34.5,774.00,798.0
2024-03-16,13:50:00,DRY,6.27,13.03,38.3,774.00,798.0
2024-03-16,13:55:00,DRY,5.90,12.95,37.0,774.00,798.0
2024-03-16,14:00:00,DRY,2.60,13.13,37.7,774.00,798.0
2024-03-16,14:05:00,DRY,3.25,13.25,35.5,773.00,798.0
2024-03-16,14:10:00,DRY,5.20,13.13,36.3,773.67,798.0
2024-03-16,14:15:00,DRY,3.50,13.30,35.0,773.50,798.0
2024-03-16,14:20:00,DRY,6.23,13.10,36.7,773.67,798.0
2024-03-16,14:25:00,DRY,6.65,12.85,37.5,773.00,798.0
2024-03-16,14:30:00,DRY,4.63,12.97,36.3,773.00,798.0
2024-03-16,14:35:00,DRY,2.80,12.95,38.5,773.00,798.0
2024-03-16,14:40:00,DRY,4.70,13.00,37.3,773.33,798.0
2024-03-16,14:45:00,DRY,3.55,13.00,38.5,773.50,798.0
2024-03-16,14:50:00,DRY,4.10,12.87,37.7,773.33,798.0
2024-03-16,14:55:00,DRY,4.30,12.90,38.0,773.00,798.0
2024-03-16,15:00:00,DRY,4.03,12.87,37.3,773.00,798.0
2024-03-16,15:05:00,DRY,3.35,12.90,36.5,773.00,798.0
2024-03-16,15:10:00,DRY,2.80,12.80,37.7,773.33,798.0
2024-03-16,15:15:00,DRY,4.00,12.85,38.0,773.00,798.0
2024-03-16,15:20:00,DRY,8.23,12.63,38.0,773.00,798.0
2024-03-16,15:25:00,DRY,6.35,12.55,38.0,773.00,798.0
2024-03-16,15:30:00,DRY,3.87,12.70,37.7,773.00,798.0
2024-03-16,15:35:00,DRY,8.10,12.95,37.5,773.00,798.0
2024-03-16,15:40:00,DRY,3.70,12.53,37.7,773.00,796.7
2024-03-16,15:45:00,DRY,4.80,12.55,37.5,773.00,785.0
2024-03-16,15:50:00,DRY,3.33,12.63,37.0,773.00,770.3
2024-03-16,15:55:00,DRY,5.45,12.45,38.0,773.00,757.0
2024-03-16,16:00:00,DRY,3.83,12.47,37.0,773.00,741.0
2024-03-16,16:05:00,DRY,5.90,12.30,37.0,773.00,726.5
2024-03-16,16:10:00,DRY,7.47,12.23,37.0,773.00,709.0
2024-03-16,16:15:00,DRY,2.70,12.25,38.0,773.00,691.5
2024-03-16,16:20:00,DRY,2.80,12.33,37.7,773.00,674.0
2024-03-16,16:25:00,DRY,5.95,12.15,38.0,773.00,659.0
2024-03-16,16:30:00,DRY,3.33,12.07,37.3,773.00,640.7
2024-03-16,16:35:00,DRY,10.50,12.00,38.0,773.00,623.5
2024-03-16,16:40:00,DRY,5.47,11.83,38.3,773.33,605.0
2024-03-16,16:45:00,DRY,3.20,11.80,38.5,773.00,586.5
2024-03-16,16:50:00,DRY,4.77,11.87,37.7,773.00,566.3
2024-03-16,16:55:00,DRY,7.40,11.80,38.0,773.50,547.5
2024-03-16,17:00:00,DRY,4.03,11.90,38.7,774.00,527.0
2024-03-16,17:05:00,DRY,3.40,11.70,39.0,774.00,506.5
2024-03-16,17:10:00,DRY,9.80,11.70,38.3,773.67,487.7
2024-03-16,17:15:00,DRY,4.10,11.90,37.5,774.00,466.0
2024-03-16,17:20:00,DRY,6.03,11.87,38.3,773.67,446.0
2024-03-16,17:25:00,DRY,9.45,11.70,38.0,773.50,425.5
2024-03-16,17:30:00,DRY,6.17,11.60,38.0,773.33,405.0
2024-03-16,17:35:00,DRY,5.45,11.70,38.0,773.00,383.5
2024-03-16,17:40:00,DRY,2.93,11.70,38.0,773.33,361.7
2024-03-16,17:45:00,DRY,9.20,11.55,38.0,773.50,340.5
2024-03-16,17:50:00,DRY,4.37,11.57,38.3,774.00,317.3
2024-03-16,17:55:00,DRY,3.25,11.55,38.5,773.50,297.0
2024-03-16,18:00:00,DRY,5.13,11.50,38.0,773.33,275.3
2024-03-16,18:05:00,DRY,5.70,11.55,38.0,773.50,253.5
2024-03-16,18:10:00,DRY,3.33,11.33,39.0,773.67,233.0
2024-03-16,18:15:00,DRY,4.70,11.30,39.0,774.00,211.0
2024-03-16,18:20:00,DRY,4.37,11.20,38.3,774.00,189.7
2024-03-16,18:25:00,DRY,5.50,11.30,39.0,774.00,168.5
2024-03-16,18:30:00,DRY,7.10,11.17,40.0,774.00,148.3
2024-03-16,18:35:00,DRY,5.00,11.00,39.5,773.50,128.5
2024-03-16,18:40:00,DRY,4.43,10.93,39.3,774.00,39.3
2024-03-16,18:45:00,DRY,3.15,10.75,40.0,774.00,22.5
2024-03-16,18:50:00,DRY,5.23,10.70,40.0,774.00,20.3
2024-03-16,18:55:00,DRY,3.95,10.60,40.0,773.50,17.5
2024-03-16,19:00:00,DRY,2.83,10.57,40.0,774.00,14.3